Location: Forli
(44.2227°N, 12.0407°E)
Time: 00:59:55
(UTC+02:00)

PCSat - Pass Details

Date: 14 April 2026
Orbit: 781 x 790 km, 67.1° (Epoch: 19 May)

Event Time Altitude Azimuth Distance (km) Brightness Sun altitude
Rises 01:47:32 0° 325° (NW) 3,293 13.3 -35.8°
Reaches altitude 10° 01:50:00 10° 321° (NW) 2,360 12.4 -35.8°
Enters shadow 01:51:23 18° 316° (NW) 1,856 11.7 -35.7°
